Regional Weather Roundup
Issued by NWS

Home | Current Version | Previous Version | Graphics & Text | Print | Product List | Glossary On
Versions: 1 2 3 4 5 6 7 8 9 10 11 12 13 14 15 16 17 18 19 20 21 22 23 24 25 26 27 28 29 30 31 32 33 34 35 36 37 38 39 40 41 42 43 44 45 46 47 48 49 50
000
ASUS44 KFWD 300815
RWRTX
NORTH TEXAS HOURLY WEATHER ROUNDUP
NATIONAL WEATHER SERVICE FORT WORTH TX
300 AM CDT FRI SEP 30 2016

NOTE: "FAIR" INDICATES FEW OR NO CLOUDS BELOW 12,000 FEET WITH NO
SIGNIFICANT WEATHER AND/OR OBSTRUCTIONS TO VISIBILITY.

TXZ118-119-300900-
DALLAS/FORT WORTH METROPLEX

CITY           SKY/WX    TMP DP  RH WIND       PRES   REMARKS
DFW AIRPORT    CLEAR     60  52  74 N8        30.20F
DALLAS LOVE    PTCLDY    62  52  69 N3        30.20F
FTW MEACHAM    CLEAR     59  50  72 N8        30.22S
DAL-EXECUTIVE  CLEAR     58  52  80 N3        30.20F
FTW-ALLIANCE   CLEAR     52  49  89 CALM      30.22S
FTW-NAS-JRB    CLEAR     60  52  74 NW7       30.23S
FTW-SPINKS     CLEAR     51  49  92 CALM      30.23S
ARLINGTON      CLEAR     56  53  90 NW5       30.21F
GRAND PRAIRIE  CLEAR     62  53  71 N3        30.22F
ADDISON        CLEAR     63  52  67 N6        30.22F
MESQUITE       CLEAR     59  53  79 N3        30.21S
LANCASTER      CLEAR     59  48  67 N6        30.21F
$$

TXZ091>094-102>105-117-120-121-131>134-300900-
NORTH CENTRAL TEXAS

CITY           SKY/WX    TMP DP  RH WIND       PRES   REMARKS
SHRMAN/DENISON CLEAR     56  52  87 CALM      30.23F
GAINESVILLE      N/A     54  50  86 NW3       30.25S
BOWIE          CLEAR     54  51  87 NW5       30.25R
BRIDGEPORT     CLEAR     52  52 100 CALM      30.26R
DECATUR        CLEAR     58  48  69 N3        30.24S
DENTON         CLEAR     52  50  93 NW6       30.22F
MCKINNEY       CLEAR     53  52  96 N5        30.21F
GREENVILLE     CLEAR     54  50  87 N3        30.20F
ROCKWALL       CLEAR     57  52  82 CALM      30.20S
TERRELL        CLEAR     56  50  80 N5        30.20F
WAXAHACHIE     CLEAR     56  51  83 N6        30.22F
CLEBURNE       CLEAR     54  54 100 NW5       30.23F
GRANBURY       CLEAR     55  51  84 W3        30.25S
$$

TXZ083>090-098>101-113>116-127>130-139>142-154-155-300900-
WESTERN NORTH TEXAS

CITY           SKY/WX    TMP DP  RH WIND       PRES   REMARKS
WICHITA FALLS  CLEAR     55  49  80 NW6       30.25S
WF-KICKAPOO    CLEAR     59  51  73 N3        30.27S
VERNON         CLEAR     56  46  69 CALM      30.28R
ABILENE        CLEAR     53  49  86 S5        30.28S
ABILENE-DYESS  CLEAR     50  48  91 SW3       30.27F
CISCO          CLEAR     57  50  77 NE5       30.27S
BRECKENRIDGE   CLEAR     54  52  94 CALM      30.25F
MINERAL WELLS  CLEAR     52  50  93 CALM      30.23S
STEPHENVILLE   CLEAR     54  48  81 CALM      30.26S
COMANCHE       CLEAR     56  51  83 NW3       30.26S
BROWNWOOD      CLEAR     52  48  87 CALM      30.26S
COLEMAN        CLEAR     56  49  75 N5        30.27S
$$

TXZ143>147-156>162-174-175-300900-
CENTRAL TEXAS

CITY           SKY/WX    TMP DP  RH WIND       PRES   REMARKS
WACO           CLEAR     56  52  86 N8        30.20F
WACO-MCGREGOR  CLEAR     56  50  80 W6        30.21S
HILLSBORO      CLEAR     53  49  88 N6        30.21S
CORSICANA      CLEAR     57  52  83 N6        30.20F
MEXIA          CLEAR     59  51  73 N5        30.18F
HEARNE         CLEAR     55  52  90 CALM      30.19S
CAMERON        PTCLDY    58  51  79 NW3       30.19S
TEMPLE         PTCLDY    53  50  89 N7        30.20F
KILLEEN        CLEAR     57  51  79 N9        30.19F
KILLEEN-SKYLRK CLEAR     58  51  78 N6        30.21S
FORT HOOD      CLEAR     55  50  83 N8        30.18S
GATESVILLE     CLEAR     55  50  82 CALM      30.23F
HAMILTON       CLEAR     55  51  85 N5        30.24S
LAMPASAS       CLEAR     58  53  82 NW6       30.21F
$$

TXZ095>097-106>112-122>126-135>138-148>153-164>167-300900-
EAST TEXAS

CITY           SKY/WX    TMP DP  RH WIND       PRES   REMARKS
PARIS          CLEAR     55  46  71 N8        30.20S
SULPHUR SPRNGS CLEAR     60  53  76 NW5       30.21F
MOUNT PLEASANT CLEAR     53  49  89 CALM      30.19F
GILMER         CLEAR     55  50  83 CALM      30.17F THUNDER
MINEOLA        CLEAR     55  50  82 CALM      30.18F
TYLER          CLEAR     56  51  84 NW3       30.18F
LONGVIEW       CLEAR     53  51  93 CALM      30.16F
MARSHALL       CLEAR     50  47  91 CALM      30.17F
ATHENS         CLEAR     54  48  82 CALM      30.17F
PALESTINE      CLEAR     55  53  94 CALM      30.19S
JACKSONVILLE   CLEAR     60  52  75 N5        30.19S
HENDERSON      CLEAR     53  52  97 CALM      30.17F
CENTER         SUNNY     55  54  95 CALM      30.16F
NACOGDOCHES    CLEAR     52  48  87 CALM      30.15S
LUFKIN         CLEAR     54  52  93 CALM      30.15F
$$

SUPPLEMENTAL OBSERVATIONS (CENTRAL)

CITY           SKY/WX    TMP DP  RH WIND       PRES   REMARKS
DENISON DAM      N/A     59  48  67 NE3         N/A
CADDO GRASSLND   N/A     52  48  87 CALM        N/A
PAT MAYSE LAKE   N/A     54  50  87 N2          N/A
GREENVILLE       N/A     52  48  87 NW2         N/A
CEDAR HILL       N/A     54  50  87 CALM        N/A
ATHENS           N/A     55  48  76 CALM        N/A
LAKE LIMESTONE   N/A     57  52  82 N5          N/A
MCGREGOR         N/A     57  50  77 NW2         N/A
TEMPLE           N/A     64  48  55 N6          N/A
$$

SUPPLEMENTAL OBSERVATIONS (WEST)

CITY           SKY/WX    TMP DP  RH WIND       PRES   REMARKS
POSSUM KINGDOM   N/A     54  50  87 SW3         N/A
LBJ GRASSLAND    N/A     54  48  82 CALM        N/A
GRANBURY         N/A     54  48  82 W3          N/A
COMANCHE         N/A     55  48  76 NW6         N/A
HAMBY            N/A     52  48  87 SE2         N/A
$$

SUPPLEMENTAL OBSERVATIONS (EAST)

CITY           SKY/WX    TMP DP  RH WIND       PRES   REMARKS
TEXARKANA        N/A     52  50  93 E1          N/A
LINDEN           N/A     55  52  88 CALM        N/A
LUFKIN           N/A     54  50  87 MISG        N/A
N SABINE NF      N/A     52  50  93 MISG        N/A
$$

SUPPLEMENTAL OBSERVATIONS ARE A COLLECTION OF AUTOMATED INSTRUMENTS
THAT ARE MAINTAINED BY A VARIETY OF FEDERAL AND STATE AGENCIES.
CERTAIN ELEMENTS...SUCH AS HUMIDITY VALUES AND SUSTAINED WIND
SPEEDS...MAY BE APPROXIMATED.





USA.gov is the U.S. government's official web portal to all federal, state and local government web resources and services.